Simultaneous Nadir Overpasses (SNOs) Predictions

Prediction of SNOs near US between AQUA and NPP Satellite Orbit:

Table of predicted SNOs near US for the next 10.0 days since TLE Epoch: 11/26/2016
Index Date (AQUA) Time (AQUA) AQUA Lat,Lon Date (NPP) Time (NPP) NPP Lat,Lon Distance(km) Time Diff (sec)
1 11/26/2016 19:06:00 49.97, -92.56 11/26/2016 19:01:51 49.65, -94.48 142.55 249
2 11/26/2016 20:44:53 49.97,-117.28 11/26/2016 20:43:19 49.54,-119.81 187.87 94
3 11/29/2016 08:34:29 20.83,-101.70 11/29/2016 08:26:22 20.87,-101.94 25.40 487
4 11/29/2016 10:10:51 29.92,-124.19 11/29/2016 10:05:15 30.06,-124.94 73.73 336
5 12/02/2016 07:18:25 49.90, -76.00 12/02/2016 07:20:50 50.34, -78.30 171.27 145
6 12/02/2016 08:57:18 49.91,-100.71 12/02/2016 09:02:17 50.51,-103.60 215.73 299
7 12/04/2016 18:16:35 50.00, -80.21 12/04/2016 18:11:07 49.73, -81.84 120.71 328
8 12/04/2016 19:55:28 49.99,-104.93 12/04/2016 19:52:35 49.62,-107.17 165.95 173
9 12/04/2016 21:30:37 36.63,-124.99 12/04/2016 21:30:12 36.13,-127.63 242.96 25




NCC Satellite Simultaneous Nadir Overpasses (SNOs) Prediction Service
